This is the latest recevied weather packets stored in our database for station/object WX4SGA. If no packets are shown the sender has not sent any weather packets the latest 10 day(s).
| Time | Temp. | Humidity | Pressure | Rain* | Wind** | Luminosity | Snow |
|---|---|---|---|---|---|---|---|
| 1788217157 | 30° C | 79% | 1017.6 hPa | 0 mm | - | 36 W/m² | - |
| 1788216853 | 30° C | 79% | 1017.6 hPa | 0 mm | - | 45 W/m² | - |
| 1788216547 | 30° C | 77% | 1017.3 hPa | 0 mm | - | 39 W/m² | - |
| 1788216247 | 30° C | 77% | 1017.3 hPa | 0 mm | - | 55 W/m² | - |
| 1788215942 | 30° C | 75% | 1017.3 hPa | 0 mm | - | 41 W/m² | - |
| 1788215638 | 30° C | 77% | 1017.3 hPa | 0 mm | - | 41 W/m² | - |
| 1788215335 | 30° C | 77% | 1017.3 hPa | 0 mm | - | 48 W/m² | - |
| 1788215030 | 30° C | 77% | 1017.3 hPa | 0 mm | - | 191 W/m² | - |
| 1788214725 | 29.44° C | 79% | 1017.6 hPa | 0 mm | - | 239 W/m² | - |
| 1788214420 | 28.89° C | 79% | 1017.6 hPa | 0 mm | - | 255 W/m² | - |
| 1788214116 | 28.89° C | 83% | 1017.6 hPa | 0 mm | - | 76 W/m² | - |
| 1788213811 | 28.89° C | 82% | 1017.6 hPa | 0 mm | - | 57 W/m² | - |
| 1788213220 | 29.44° C | 81% | 1017.6 hPa | 0 mm | - | 221 W/m² | - |
| 1788212898 | 28.89° C | 80% | 1017.6 hPa | 0 mm | - | 161 W/m² | - |
| 1788212596 | 28.89° C | 81% | 1017.6 hPa | 0 mm | - | 89 W/m² | - |
| 1788212291 | 28.89° C | 81% | 1018 hPa | 0 mm | - | 74 W/m² | - |
| 1788211988 | 28.89° C | 81% | 1017.6 hPa | 0 mm | - | 66 W/m² | - |
| 1788211688 | 28.89° C | 78% | 1018 hPa | 0 mm | - | 57 W/m² | - |
| 1788211385 | 28.89° C | 77% | 1018 hPa | 0 mm | - | 61 W/m² | - |
| 1788211083 | 29.44° C | 75% | 1017.6 hPa | 0 mm | - | 78 W/m² | - |
| 1788210779 | 29.44° C | 76% | 1017.6 hPa | 0 mm | - | 98 W/m² | - |
| 1788210478 | 30° C | 76% | 1017.6 hPa | 0 mm | - | 141 W/m² | - |
| 1788210174 | 30.56° C | 73% | 1017.3 hPa | 0 mm | - | 206 W/m² | - |
| 1788209874 | 30.56° C | 76% | 1017.6 hPa | 0 mm | - | 241 W/m² | - |
| 1788209570 | 30.56° C | 74% | 1017.6 hPa | 0 mm | - | 225 W/m² | - |
* Rain latest hour (hover to see other rain measurements)
** Current wind speed in m/s (hover to see current wind gust speed)